Time,TemperatureF,DewpointF,PressureIn,WindDirection,WindDirectionDegrees,WindSpeedMPH,WindSpeedGustMPH,Humidity,HourlyPrecipIn,Conditions,Clouds,dailyrainin,SoftwareType,DateUTC
2013-07-08 00:06:00,66.8,64.0,30.02,WSW,247,3.0,11.0,90,0.00,,,0.00,weatherlink.com 1.10,2013-07-08 04:06:00,
2013-07-08 00:21:00,67.8,64.0,30.02,WNW,286,2.0,10.0,88,0.00,,,0.00,weatherlink.com 1.10,2013-07-08 04:21:00,
2013-07-08 00:36:00,68.3,64.0,30.02,WNW,284,5.0,13.0,86,0.00,,,0.00,weatherlink.com 1.10,2013-07-08 04:36:00,
2013-07-08 00:51:00,68.2,64.0,30.02,WSW,238,6.0,10.0,86,0.00,,,0.00,weatherlink.com 1.10,2013-07-08 04:51:00,
2013-07-08 01:06:00,68.0,64.0,30.02,SW,227,5.0,9.0,87,0.00,,,0.00,weatherlink.com 1.10,2013-07-08 05:06:00,
2013-07-08 01:21:00,67.6,64.0,30.03,WSW,238,2.0,10.0,87,0.00,,,0.00,weatherlink.com 1.10,2013-07-08 05:21:00,
2013-07-08 01:36:00,67.2,64.0,30.03,West,267,4.0,8.0,88,0.00,,,0.00,weatherlink.com 1.10,2013-07-08 05:36:00,
2013-07-08 01:51:00,67.5,64.0,30.03,SW,223,0.0,8.0,87,0.00,,,0.00,weatherlink.com 1.10,2013-07-08 05:51:00,
2013-07-08 02:06:00,67.5,64.0,30.03,WSW,239,0.0,6.0,88,0.00,,,0.00,weatherlink.com 1.10,2013-07-08 06:06:00,
2013-07-08 02:21:00,66.4,64.0,30.02,West,260,2.0,10.0,91,0.00,,,0.00,weatherlink.com 1.10,2013-07-08 06:21:00,
2013-07-08 02:36:00,65.9,64.0,30.03,SW,232,3.0,8.0,92,0.00,,,0.00,weatherlink.com 1.10,2013-07-08 06:36:00,
2013-07-08 02:51:00,66.3,63.0,30.03,SW,231,3.0,6.0,90,0.00,,,0.00,weatherlink.com 1.10,2013-07-08 06:51:00,
2013-07-08 03:06:00,66.4,64.0,30.03,West,267,1.0,10.0,90,0.00,,,0.00,weatherlink.com 1.10,2013-07-08 07:06:00,
2013-07-08 03:21:00,66.3,63.0,30.02,WSW,242,2.0,12.0,90,0.00,,,0.00,weatherlink.com 1.10,2013-07-08 07:21:00,
2013-07-08 03:36:00,66.1,64.0,30.03,SW,225,4.0,13.0,91,0.00,,,0.00,weatherlink.com 1.10,2013-07-08 07:36:00,
2013-07-08 03:51:00,66.1,63.0,30.03,WSW,241,7.0,10.0,90,0.00,,,0.00,weatherlink.com 1.10,2013-07-08 07:51:00,
2013-07-08 04:06:00,66.6,63.0,30.03,WSW,239,4.0,11.0,88,0.00,,,0.00,weatherlink.com 1.10,2013-07-08 08:06:00,
2013-07-08 04:21:00,66.8,63.0,30.02,WNW,298,1.0,9.0,88,0.00,,,0.00,weatherlink.com 1.10,2013-07-08 08:21:00,
2013-07-08 04:36:00,66.4,63.0,30.03,WSW,251,3.0,9.0,88,0.00,,,0.00,weatherlink.com 1.10,2013-07-08 08:36:00,
2013-07-08 04:51:00,65.9,63.0,30.02,WSW,253,1.0,7.0,89,0.00,,,0.00,weatherlink.com 1.10,2013-07-08 08:51:00,
2013-07-08 05:06:00,65.6,63.0,30.03,SW,228,3.0,6.0,90,0.00,,,0.00,weatherlink.com 1.10,2013-07-08 09:06:00,
2013-07-08 05:21:00,66.0,63.0,30.03,WSW,254,3.0,9.0,89,0.00,,,0.00,weatherlink.com 1.10,2013-07-08 09:21:00,
2013-07-08 05:36:00,66.0,63.0,30.04,WSW,253,2.0,8.0,89,0.00,,,0.00,weatherlink.com 1.10,2013-07-08 09:36:00,
2013-07-08 05:51:00,66.3,62.0,30.04,West,274,2.0,15.0,87,0.00,,,0.00,weatherlink.com 1.10,2013-07-08 09:51:00,
2013-07-08 06:06:00,66.4,63.0,30.05,WSW,251,2.0,8.0,87,0.00,,,0.00,weatherlink.com 1.10,2013-07-08 10:06:00,
2013-07-08 06:21:00,66.3,62.0,30.05,SW,232,1.0,4.0,87,0.00,,,0.00,weatherlink.com 1.10,2013-07-08 10:21:00,
2013-07-08 06:36:00,66.0,62.0,30.05,WSW,244,1.0,6.0,87,0.00,,,0.00,weatherlink.com 1.10,2013-07-08 10:36:00,
2013-07-08 06:51:00,66.2,62.0,30.04,SSW,213,0.0,6.0,87,0.00,,,0.00,weatherlink.com 1.10,2013-07-08 10:51:00,
2013-07-08 07:06:00,66.8,63.0,30.05,WSW,239,1.0,7.0,88,0.00,,,0.00,weatherlink.com 1.10,2013-07-08 11:06:00,
2013-07-08 07:21:00,67.5,63.0,30.05,West,263,1.0,7.0,86,0.00,,,0.00,weatherlink.com 1.10,2013-07-08 11:21:00,
2013-07-08 07:36:00,68.2,63.0,30.05,WNW,296,1.0,7.0,84,0.00,,,0.00,weatherlink.com 1.10,2013-07-08 11:36:00,
2013-07-08 07:51:00,68.6,63.0,30.06,NW,315,3.0,7.0,83,0.00,,,0.00,weatherlink.com 1.10,2013-07-08 11:51:00,
2013-07-08 08:06:00,68.6,63.0,30.06,NW,311,2.0,6.0,83,0.00,,,0.00,weatherlink.com 1.10,2013-07-08 12:06:00,
2013-07-08 08:21:00,69.0,64.0,30.07,WNW,286,4.0,8.0,83,0.00,,,0.00,weatherlink.com 1.10,2013-07-08 12:21:00,
2013-07-08 08:36:00,69.5,64.0,30.07,WSW,246,0.0,4.0,82,0.00,,,0.00,weatherlink.com 1.10,2013-07-08 12:36:00,
2013-07-08 08:51:00,70.4,64.0,30.07,WNW,297,1.0,5.0,80,0.00,,,0.00,weatherlink.com 1.10,2013-07-08 12:51:00,
2013-07-08 09:06:00,70.8,63.0,30.07,SW,221,2.0,7.0,77,0.00,,,0.00,weatherlink.com 1.10,2013-07-08 13:06:00,
2013-07-08 09:21:00,72.1,63.0,30.07,WNW,291,1.0,5.0,74,0.00,,,0.00,weatherlink.com 1.10,2013-07-08 13:21:00,
2013-07-08 09:37:00,72.4,63.0,30.07,West,261,0.0,4.0,72,0.00,,,0.00,weatherlink.com 1.10,2013-07-08 13:37:00,
2013-07-08 09:52:00,72.9,63.0,30.07,WSW,246,0.0,3.0,71,0.00,,,0.00,weatherlink.com 1.10,2013-07-08 13:52:00,
2013-07-08 10:07:00,73.1,63.0,30.07,SW,219,2.0,5.0,70,0.00,,,0.00,weatherlink.com 1.10,2013-07-08 14:07:00,
2013-07-08 10:22:00,71.7,66.0,30.08,SW,228,3.0,6.0,81,0.00,,,0.00,weatherlink.com 1.10,2013-07-08 14:22:00,
2013-07-08 10:37:00,72.2,65.0,30.08,SSW,200,5.0,7.0,78,0.00,,,0.00,weatherlink.com 1.10,2013-07-08 14:37:00,
2013-07-08 10:52:00,71.2,66.0,30.09,WSW,244,4.0,8.0,82,0.00,,,0.00,weatherlink.com 1.10,2013-07-08 14:52:00,
2013-07-08 11:07:00,71.0,65.0,30.09,SW,217,3.0,6.0,82,0.00,,,0.00,weatherlink.com 1.10,2013-07-08 15:07:00,
2013-07-08 11:22:00,71.5,64.0,30.09,WSW,247,1.0,8.0,76,0.00,,,0.00,weatherlink.com 1.10,2013-07-08 15:22:00,
2013-07-08 11:37:00,72.7,64.0,30.09,SSW,201,1.0,7.0,75,0.00,,,0.00,weatherlink.com 1.10,2013-07-08 15:37:00,
2013-07-08 11:52:00,74.0,63.0,30.08,SW,215,1.0,4.0,69,0.00,,,0.00,weatherlink.com 1.10,2013-07-08 15:52:00,
2013-07-08 12:07:00,73.8,63.0,30.08,SW,234,3.0,7.0,70,0.00,,,0.00,weatherlink.com 1.10,2013-07-08 16:07:00,
2013-07-08 12:22:00,75.0,63.0,30.08,NW,320,4.0,5.0,66,0.00,,,0.00,weatherlink.com 1.10,2013-07-08 16:22:00,
2013-07-08 12:37:00,75.8,63.0,30.08,WNW,282,2.0,3.0,65,0.00,,,0.00,weatherlink.com 1.10,2013-07-08 16:37:00,
2013-07-08 12:52:00,74.8,62.0,30.08,WSW,243,2.0,8.0,65,0.00,,,0.00,weatherlink.com 1.10,2013-07-08 16:52:00,
2013-07-08 13:07:00,74.1,63.0,30.07,SSE,166,0.0,10.0,68,0.00,,,0.00,weatherlink.com 1.10,2013-07-08 17:07:00,
2013-07-08 13:22:00,75.5,63.0,30.07,South,188,3.0,13.0,65,0.00,,,0.00,weatherlink.com 1.10,2013-07-08 17:22:00,
2013-07-08 13:37:00,75.9,63.0,30.07,WNW,290,1.0,5.0,64,0.00,,,0.00,weatherlink.com 1.10,2013-07-08 17:37:00,
2013-07-08 13:52:00,75.9,64.0,30.07,SSW,212,0.0,5.0,66,0.00,,,0.00,weatherlink.com 1.10,2013-07-08 17:52:00,
2013-07-08 14:07:00,76.1,64.0,30.06,NNW,336,1.0,6.0,67,0.00,,,0.00,weatherlink.com 1.10,2013-07-08 18:07:00,
2013-07-08 14:52:00,74.1,65.0,30.05,WSW,252,1.0,3.0,73,0.00,,,0.00,weatherlink.com 1.10,2013-07-08 18:52:00,
2013-07-08 15:07:00,73.9,65.0,30.05,WSW,253,1.0,5.0,73,0.00,,,0.00,weatherlink.com 1.10,2013-07-08 19:07:00,
2013-07-08 15:52:00,72.4,65.0,30.05,SW,225,4.0,15.0,78,0.00,,,0.00,weatherlink.com 1.10,2013-07-08 19:52:00,
2013-07-08 16:22:00,74.2,67.0,30.03,WSW,248,1.0,7.0,77,0.00,,,0.00,weatherlink.com 1.10,2013-07-08 20:22:00,
2013-07-08 16:37:00,74.4,67.0,30.03,SSW,202,3.0,8.0,78,0.00,,,0.00,weatherlink.com 1.10,2013-07-08 20:37:00,
2013-07-08 17:07:00,75.5,65.0,30.02,SSW,211,4.0,8.0,71,0.00,,,0.00,weatherlink.com 1.10,2013-07-08 21:07:00,
2013-07-08 17:52:00,75.2,68.0,30.02,WSW,244,8.0,10.0,78,0.00,,,0.00,weatherlink.com 1.10,2013-07-08 21:52:00,
2013-07-08 18:07:00,74.4,67.0,30.03,WSW,238,2.0,10.0,77,0.00,,,0.00,weatherlink.com 1.10,2013-07-08 22:07:00,
2013-07-08 18:22:00,73.7,66.0,30.02,SW,229,3.0,10.0,77,0.00,,,0.00,weatherlink.com 1.10,2013-07-08 22:22:00,
2013-07-08 19:07:00,73.5,67.0,30.02,SW,214,4.0,7.0,81,0.00,,,0.00,weatherlink.com 1.10,2013-07-08 23:07:00,
2013-07-08 19:22:00,73.1,68.0,30.02,SSW,211,4.0,7.0,83,0.00,,,0.00,weatherlink.com 1.10,2013-07-08 23:22:00,
2013-07-08 19:37:00,73.0,68.0,30.02,SW,233,2.0,10.0,83,0.00,,,0.00,weatherlink.com 1.10,2013-07-08 23:37:00,
2013-07-08 19:52:00,73.1,68.0,30.02,SSW,203,5.0,8.0,83,0.00,,,0.00,weatherlink.com 1.10,2013-07-08 23:52:00,
2013-07-08 20:22:00,73.7,64.0,30.03,WSW,252,6.0,14.0,72,0.00,,,0.00,weatherlink.com 1.10,2013-07-09 00:22:00,
2013-07-08 20:37:00,73.3,66.0,30.04,West,272,3.0,7.0,78,0.00,,,0.00,weatherlink.com 1.10,2013-07-09 00:37:00,
2013-07-08 20:52:00,74.0,65.0,30.05,SSW,202,7.0,9.0,74,0.00,,,0.00,weatherlink.com 1.10,2013-07-09 00:52:00,
2013-07-08 21:07:00,73.4,67.0,30.05,SSW,213,4.0,8.0,80,0.00,,,0.00,weatherlink.com 1.10,2013-07-09 01:07:00,
2013-07-08 21:22:00,72.8,66.0,30.05,SW,235,7.0,11.0,78,0.00,,,0.00,weatherlink.com 1.10,2013-07-09 01:22:00,
2013-07-08 22:07:00,72.9,65.0,30.07,West,267,4.0,10.0,75,0.00,,,0.00,weatherlink.com 1.10,2013-07-09 02:07:00,
2013-07-08 22:37:00,73.4,64.0,30.07,SSW,207,4.0,11.0,72,0.00,,,0.00,weatherlink.com 1.10,2013-07-09 02:37:00,
2013-07-08 22:52:00,73.0,63.0,30.07,WSW,239,1.0,6.0,72,0.00,,,0.00,weatherlink.com 1.10,2013-07-09 02:52:00,
2013-07-08 23:07:00,73.4,63.0,30.07,SW,217,3.0,6.0,71,0.00,,,0.00,weatherlink.com 1.10,2013-07-09 03:07:00,
2013-07-08 23:37:00,72.8,63.0,30.07,West,259,6.0,11.0,72,0.00,,,0.00,weatherlink.com 1.10,2013-07-09 03:37:00,
2013-07-08 23:52:00,73.0,63.0,30.06,WSW,239,2.0,11.0,72,0.00,,,0.00,weatherlink.com 1.10,2013-07-09 03:52:00,